Regional Weather Roundup
Issued by NWS Cleveland, OH

Home | Current Version | Previous Version | Graphics & Text | Print | Product List | Glossary On
Versions: 1 2 3 4 5 6 7 8 9 10 11 12 13 14 15 16 17 18 19 20 21 22 23 24 25 26 27 28 29 30 31 32 33 34 35 36 37 38 39 40 41 42 43 44 45 46 47 48 49 50
000
ASUS41 KCLE 230710
RWRCLE
OHIO REGIONAL WEATHER ROUNDUP
NATIONAL WEATHER SERVICE CLEVELAND, OH
300 AM EDT SAT JUL 23 2016

NOTE: "FAIR" INDICATES FEW OR NO CLOUDS BELOW 12,000 FEET WITH NO
SIGNIFICANT WEATHER AND/OR OBSTRUCTIONS TO VISIBILITY.

OHZ001>008-015>018-024>027-034-035-043-044-230800-
   NORTHWEST OHIO

CITY           SKY/WX    TMP DP  RH WIND       PRES   REMARKS
DEFIANCE       CLEAR     76  70  82 CALM      29.99F
FINDLAY        CLOUDY    77  70  79 SW5       29.99S
TOLEDO EXPRESS PTCLDY    75  73  93 W5        29.98S
TOLEDO EXEC    CLEAR     77  73  87 W3        29.99S
LIMA           CLEAR     73  73 100 SW3       30.01S
$$

OHZ009>014-019>023-028>033-038-089-230800-
   NORTHEAST OHIO

CITY           SKY/WX    TMP DP  RH WIND       PRES   REMARKS
CLE-HOPKINS    PTCLDY    78  72  81 SW6       29.99S
CLE-LAKEFRONT  CLEAR     80  74  81 SW9       29.95S
CUY CO. ARPT   NOT AVBL
LORAIN-ELYRIA  CLEAR     74  71  91 W6        29.98F
ASHTABULA      CLEAR     73  69  87 CALM      29.97S
AKRON-CANTON   CLEAR     74  70  87 SW6       30.01S
WOOSTER        CLEAR     73  71  93 W6        30.01F
MANSFIELD      CLEAR     74  74 100 SW7       30.02F
YOUNGSTOWN     PTCLDY    72  70  93 SW6       29.99S
$$

OHZ042-051>053-060>062-070>072-077>081-230800-
  SOUTHWEST OHIO

CITY           SKY/WX    TMP DP  RH WIND       PRES   REMARKS
CINC-COVINGTON CLEAR     73  71  93 CALM      30.03F
CINC-LUNKEN    CLEAR     71  71 100 CALM      30.02F
HAMILTON       CLEAR     71  69  93 CALM      30.03S
DAYTON         PTCLDY    73  71  93 SW6       30.04S
WRIGHT-PAT AFB CLEAR     74  73  96 SW1       30.02S
DAYTON GENERAL CLOUDY    74  69  85 CALM      30.03S
WILMINGTON     CLEAR     71  69  93 W3        30.03F
$$

OHZ036-037-039>041-045>050-054>059-063>069-073>076-082>088-230800-
  CENTRAL AND SOUTHEAST OHIO

CITY           SKY/WX    TMP DP  RH WIND       PRES   REMARKS
COLUMBUS       CLEAR     72  69  90 CALM      30.01F
OSU AIRPORT    CLEAR     74  71  91 W6        30.01F
BOLTON FIELD   CLEAR     71  70  98 CALM      30.02F
RICKENBACK AFB CLEAR     69  69  98 CALM      30.01F
NEWARK         CLEAR     69  68  96 CALM      30.02S
MARION         CLEAR     73  71  93 SW5       30.02S FOG
LANCASTER      CLEAR     69  68  96 CALM      30.03S
ZANESVILLE     CLEAR     71  67  87 CALM      30.03R
NEW PHILLY     MOCLDY    76  70  82 CALM      30.01S
$$



USA.gov is the U.S. government's official web portal to all federal, state and local government web resources and services.